Tracking 30009 objects as of 7-Dec-2024
HD Live streaming from Space Station
objects crossing your sky now

DIAMANT B-P4 R/B

Track DIAMANT B-P4 R/B now!
10-day predictions


NORAD ID: 7647
Int'l Code: 1975-010B
Perigee: 803.6 km
Apogee: 1,122.9 km
Inclination: 49.8 °
Period: 104.2 minutes
Semi major axis: 7334 km
RCS: 0.969 m2 (medium)
Launch date: February 6, 1975
Source: France (FR)
Launch site: FRENCH GUIANA (FRGUI)

Note: This is a ROCKET BODY
Your satellite tracking list
Your tracking list is empty




NASA's NSSDC Master Catalog

Two Line Element Set (TLE):
1 07647U 75010B   24341.74475166  .00000084  00000-0  17311-3 0  9999
2 07647  49.8269 348.1228 0217716 205.5425 153.4580 13.82199693513937
Source of the keplerian elements: AFSPC